This demonstration page uses our WeatherBlox Daily Observations layout. Learn more.

Left ArrowRight Arrow

39.01783, -85.05884

Hourly Observations for February 26, 2019

Temp ( °F °C ) Dew Point ( °F °C ) Humidity (%) Winds ( mph kmh ) Pressure ( in mb ) Visibility ( mi km ) Precip ( " mm )
12:52 am 00:52 Mostly Clear 31 -0.6 14 -10 49 49 ENE 5 7 30.40 1029 10 16 0.00 0.00
1:52 am 01:52 Clear 31 -0.6 14 -10 49 49 ENE 5 7 30.40 1029 10 16 0.00 0.00
2:52 am 02:52 Mostly Clear 31 -0.6 12 -11.1 45 45 ENE 5 7 30.39 1029 10 16 0.00 0.00
3:52 am 03:52 Clear 27 -2.8 15 -9.4 61 61 NNE 6 9 30.38 1029 10 16 0.00 0.00
4:52 am 04:52 Clear 29 -1.7 14 -10 54 54 ENE 3 6 30.39 1029 10 16 0.00 0.00
5:52 am 05:52 Mostly Clear 29 -1.7 13 -10.6 51 51 NE 5 7 30.40 1030 10 16 0.00 0.00
6:52 am 06:52 Mostly Cloudy 28 -2.2 16 -8.9 60 60 NNE 7 11 30.41 1030 10 16 0.00 0.00
7:52 am 07:52 Mostly Cloudy 29 -1.7 14 -10 54 54 NE 9 15 30.41 1030 10 16 0.00 0.00
8:52 am 08:52 Mostly Cloudy 32 0 15 -9.4 50 50 ENE 8 13 30.42 1030 10 16 0.00 0.00
9:52 am 09:52 Mostly Cloudy 36 2.2 15 -9.4 42 42 NE 7 11 30.42 1030 10 16 0.00 0.00
10:52 am 10:52 Mostly Cloudy 39 3.9 15 -9.4 38 38 VRB 6 9 30.42 1030 10 16 0.00 0.00
11:52 am 11:52 Mostly Cloudy 43 6.1 15 -9.4 32 32 N 5 7 30.40 1030 10 16 0.00 0.00
12:52 pm 12:52 Mostly Cloudy 45 7.2 16 -8.9 31 31 N 7 11 30.38 1029 10 16 0.00 0.00
1:52 pm 13:52 Mostly Cloudy 47 8.3 18 -7.8 31 31 NE 5 7 30.34 1027 10 16 0.00 0.00
2:52 pm 14:52 Mostly Cloudy 50 10 19 -7.2 29 29 NNE 5 7 30.33 1027 10 16 0.00 0.00
3:52 pm 15:52 Mostly Cloudy 50 10 19 -7.2 29 29 VRB 3 6 30.32 1027 10 16 0.00 0.00
4:52 pm 16:52 Mostly Sunny 50 10 18 -7.8 28 28 Calm 30.29 1026 10 16 0.00 0.00
5:52 pm 17:52 Mostly Sunny 48 8.9 19 -7.2 32 32 NE 7 11 30.29 1026 10 16 0.00 0.00
6:52 pm 18:52 Clear 45 7.2 20 -6.7 37 37 ENE 8 13 30.30 1026 10 16 0.00 0.00
7:52 pm 19:52 Clear 41 5 24 -4.4 51 51 E 14 22 30.29 1026 10 16 0.00 0.00
8:52 pm 20:52 Clear 37 2.8 24 -4.4 59 59 E 9 15 30.28 1026 10 16 0.00 0.00
9:52 pm 21:52 Clear 36 2.2 23 -5 59 59 E 9 15 30.29 1026 10 16 0.00 0.00
10:52 pm 22:52 Clear 34 1.1 22 -5.6 61 61 E 9 15 30.27 1025 10 16 0.00 0.00
11:52 pm 23:52 Clear 34 1.1 21 -6.1 59 59 E 8 13 30.24 1024 10 16 0.00 0.00

Powered by AerisWeather